LTAILTBS

Guest
Details From LTAI - Antalya
To LTBS - DALAMAN
Flight Number -
Tags generated
Created
Modified
Stats Distance 97 nm / 180 km
Max Altitude 12,500 ft / 3,810 m
Waypoints 3
Social Downloads 1
Likes 0
Share VATSIM

Download

Looking for another format? Having issues loading an existing format? Contact us
Advertisement - Login to hide

Notes

Basic altitude profile: - Ascent Rate: 2500ft/min - Ascent Speed: 250kts - Cruise Altitude: 15000ft - Cruise Speed: 420kts - Descent Rate: 1500ft/min - Descent Speed: 250kts Options: - Use NATs: yes - Use PACOTS: yes - Use low airways: yes - Use high airways: no

Route

LTAI ALPAY LTBS

ID Type Via Altitude Latitude Longitude Leg Dist Tot Dist Heading (true) Name
O LTAI APT - 0 ft / 0 m 36.89960˚ 30.79751˚ - 0 nm - Antalya
ALPAY FIX - 12,500 ft / 3,810 m 36.83222˚ 29.99944˚ 38 nm 38 nm 264° / 264° -
O LTBS APT - 0 ft / 0 m 36.71319˚ 28.79251˚ 58 nm 97 nm 263° / 263° DALAMAN

Altitude Profile

Advertisement - Login to hide

LTAI

Details ICAO LTAI (AYT)
Name Antalya
Region Turkey
Timezone Europe/Istanbul (UTC+3.0)
Stats Elevation 177 ft / 54 m (AMSL)
Location 36.899598° 30.797507°
Runways 3
Magnetic Variation 5.119° E

METAR

LTAI 200720Z 20006KT 140V270 9999 FEW030 28/14 Q1012 NOSIG RMK RWY18C VRB05KT RWY36R VRB05KT RWY18L 22004KT

Decode

TAF

Not found

Departure Runways

ID Width Length Bearing (true) Bearing (mag) Surface Threshold Offset Overrun Length
18C 148 ft / 45 m 11,137 ft / 3,394 m 186.26° 181.14° Concrete 0 ft / 0 m 197 ft / 60 m
18L 148 ft / 45 m 11,180 ft / 3,408 m 186.28° 181.16° Concrete 0 ft / 0 m 197 ft / 60 m
18R 148 ft / 45 m 9,789 ft / 2,984 m 186.25° 181.13° Asphalt 0 ft / 0 m 984 ft / 300 m
36C 148 ft / 45 m 11,137 ft / 3,394 m 6.25° 1.13° Concrete 0 ft / 0 m 197 ft / 60 m
36L 148 ft / 45 m 9,789 ft / 2,984 m 6.25° 1.13° Asphalt 0 ft / 0 m 984 ft / 300 m
36R 148 ft / 45 m 11,180 ft / 3,408 m 6.28° 1.16° Concrete 0 ft / 0 m 197 ft / 60 m

LTBS

Details ICAO LTBS (DLM)
Name DALAMAN
Region Turkey
Timezone Europe/Istanbul (UTC+3.0)
Stats Elevation 20 ft / 6 m (AMSL)
Location 36.713189° 28.792513°
Runways 1
Magnetic Variation 4.928° E

METAR

LTBS 200720Z 21008KT 180V240 9999 FEW025 27/18 Q1013 NOSIG RMK RWY19 VRB02KT

Decode

TAF

Not found

Destination Runways

ID Width Length Bearing (true) Bearing (mag) Surface Threshold Offset Overrun Length
01 148 ft / 45 m 9,851 ft / 3,003 m 15.24° 10.31° Concrete 0 ft / 0 m 197 ft / 60 m
19 148 ft / 45 m 9,851 ft / 3,003 m 195.25° 190.32° Concrete 0 ft / 0 m 197 ft / 60 m

Popular Alternatives